This demonstration page uses our WeatherBlox Daily Observations layout. Learn more.

Left ArrowRight Arrow

Hourly Observations for October 10, 2016

Temp ( °F °C ) Dew Point ( °F °C ) Humidity (%) Winds ( mph kmh ) Pressure ( in mb ) Visibility ( mi km ) Precip ( " mm )
12:09 am 00:09 Cloudy with Light Snow 32 0 32 0 100 100 N 6 9 30.15 1021 1 2 0.02 0.51
12:53 am 00:53 Cloudy with Light Snow 32 0 32 0 100 100 NE 6 9 30.12 1020 1 2 0.08 2.03
1:12 am 01:12 Cloudy with Light Snow 32 0 32 0 100 100 NE 5 7 30.15 1021 1 1 0.00 0.00
1:24 am 01:24 Cloudy with Light Snow 32 0 32 0 100 100 ENE 3 6 30.15 1021 1 1 0.00 0.00
1:33 am 01:33 Cloudy with Light Snow 32 0 32 0 100 100 ENE 5 7 30.18 1022 1 2 0.05 1.27
1:45 am 01:45 Cloudy with Light Snow 32 0 32 0 100 100 NE 9 15 30.15 1021 1 1 0.06 1.52
1:53 am 01:53 Cloudy with Light Snow 32 0 32 0 100 100 NE 7 11 30.11 1020 1 1 0.07 1.78
2:05 am 02:05 Cloudy with Light Snow 32 0 31 -0.6 96 96 NE 9 15 30.15 1021 1 1 0.02 0.51
2:13 am 02:13 Cloudy with Light Snow 32 0 32 0 100 100 NE 9 15 30.15 1021 1 2 0.02 0.51
2:22 am 02:22 Cloudy with Light Snow 32 0 30 -1 93 93 ENE 12 19 30.15 1021 2 2 0.00 0.00
2:38 am 02:38 Cloudy with Light Snow 32 0 30 -1 93 93 NE 9 15 30.15 1021 2 2 0.00 0.00
2:48 am 02:48 Cloudy with Light Snow 32 0 30 -1 93 93 NE 12 19 30.15 1021 1 2 0.00 0.00
2:53 am 02:53 Cloudy with Light Snow 32 0 31 -0.6 96 96 NE 13 20 30.09 1019 1 1 0.05 1.27
3:01 am 03:01 Cloudy with Light Snow 32 0 31 -0.6 96 96 NE 12 19 30.15 1021 1 1 0.01 0.25
3:08 am 03:08 Cloudy with Light Snow 32 0 30 -1 93 93 ENE 8 13 30.15 1021 1 1 0.00 0.00
3:17 am 03:17 Mostly Cloudy with Light Snow 32 0 31 -0.6 96 96 ENE 8 13 30.15 1021 1 1 0.04 1.02
3:53 am 03:53 Mostly Cloudy with Light Snow 31 -0.6 31 -0.6 100 100 NE 9 15 30.08 1019 1 1 0.10 2.54
4:09 am 04:09 Cloudy with Light Snow 32 0 31 -0.6 96 96 ENE 10 17 30.15 1021 1 2 0.02 0.51
4:23 am 04:23 Cloudy with Light Snow 31 -0.6 30 -1.1 96 96 ENE 13 20 30.15 1021 1 1 0.04 1.02
4:53 am 04:53 Mostly Cloudy with Light Snow 31 -0.6 30 -1.1 96 96 ENE 10 17 30.08 1019 1 1 0.09 2.29
5:53 am 05:53 Mostly Cloudy with Snow 30 -1.1 30 -1.1 100 100 NE 12 19 30.08 1019 1 1 0.11 2.79
6:06 am 06:06 Mostly Cloudy with Light Snow 30 -1 30 -1 100 100 NE 13 20 30.12 1020 1 2 0.00 0.00
6:22 am 06:22 Cloudy with Light Snow 30 -1 28 -2 93 93 ENE 18 30 30.09 1019 1 2 0.00 0.00
6:30 am 06:30 Cloudy with Light Snow 30 -1 28 -2 93 93 ENE 16 26 30.12 1020 2 3 0.00 0.00
6:53 am 06:53 Cloudy with Light Snow 30 -1.1 29 -1.7 96 96 ENE 16 26 30.05 1018 4 6 0.05 1.27
7:10 am 07:10 Cloudy with Light Snow 30 -1 28 -2 93 93 ENE 17 28 30.09 1019 3 5 0.00 0.00
7:17 am 07:17 Cloudy with Light Snow 30 -1.1 29 -1.7 96 96 NE 15 24 30.12 1020 2 3 0.02 0.51
7:30 am 07:30 Cloudy with Light Snow 30 -1 28 -2 93 93 NE 12 19 30.12 1020 1 2 0.00 0.00
7:40 am 07:40 Mostly Cloudy with Light Snow 30 -1 28 -2 93 93 NE 14 22 30.12 1020 1 1 0.00 0.00
7:53 am 07:53 Mostly Cloudy with Snow 30 -1.1 29 -1.7 96 96 ENE 14 22 30.05 1018 1 1 0.06 1.52
8:02 am 08:02 Mostly Cloudy with Snow 30 -1 28 -2 93 93 ENE 16 26 30.09 1019 0 0 0.00 0.00
8:14 am 08:14 Cloudy with Snow 30 -1 28 -2 93 93 ENE 20 31 30.09 1019 1 1 0.00 0.00
8:22 am 08:22 Windy with Snow Likely 30 -1 28 -2 93 93 ENE 20 31 30.09 1019 1 1 0.00 0.00
8:53 am 08:53 Cloudy with Snow 30 -1.1 29 -1.7 96 96 E 18 30 30.04 1017 1 1 0.06 1.52
9:09 am 09:09 Cloudy with Light Snow 30 -1.1 29 -1.7 96 96 ENE 17 28 30.09 1019 1 1 0.01 0.25
9:41 am 09:41 Cloudy with Snow 30 -1.1 29 -1.7 96 96 E 17 28 30.12 1020 1 1 0.04 1.02
9:53 am 09:53 Mostly Cloudy with Snow 30 -1.1 29 -1.7 96 96 ENE 17 28 30.05 1018 1 1 0.05 1.27
10:00 am 10:00 Mostly Cloudy with Snow 30 -1 28 -2 93 93 ENE 14 22 30.12 1020 0 0 0.00 0.00
10:26 am 10:26 Cloudy with Light Snow 30 -1 28 -2 93 93 N 9 15 30.15 1021 1 1 0.00 0.00
10:35 am 10:35 Cloudy with Light Snow 30 -1.1 29 -1.7 96 96 N 9 15 30.15 1021 1 2 0.04 1.02
10:49 am 10:49 Cloudy with Snow 30 -1 28 -2 93 93 NE 12 19 30.15 1021 1 1 0.04 1.02
10:53 am 10:53 Mostly Cloudy with Snow 30 -1.1 29 -1.7 96 96 NE 12 19 30.11 1020 1 1 0.05 1.27
11:00 am 11:00 Mostly Cloudy with Snow 30 -1 28 -2 93 93 NE 12 19 30.15 1021 0 0 0.00 0.00
11:21 am 11:21 Mostly Cloudy with Light Snow 30 -1.1 29 -1.7 96 96 ENE 9 15 30.15 1021 1 1 0.02 0.51
11:38 am 11:38 Cloudy with Light Snow 30 -1 28 -2 93 93 NNE 7 11 30.15 1021 1 2 0.00 0.00
11:53 am 11:53 Cloudy with Light Snow 31 -0.6 29 -1.7 92 92 NE 6 9 30.16 1021 1 2 0.03 0.76
12:13 pm 12:13 Cloudy with Light Snow 31 -0.6 29 -1.7 92 92 NNE 8 13 30.18 1022 2 3 0.00 0.03
12:19 pm 12:19 Cloudy with Light Snow 31 -0.6 29 -1.7 92 92 NNE 8 13 30.18 1022 2 3 0.00 0.03
12:26 pm 12:26 Cloudy with Light Snow 30 -1 28 -2 93 93 NE 8 13 30.15 1021 3 5 0.00 0.00
12:33 pm 12:33 Cloudy with Light Snow 31 -0.6 29 -1.7 92 92 NE 9 15 30.18 1022 3 5 0.00 0.03
12:53 pm 12:53 Cloudy 31 -0.6 28 -2.2 89 89 NNE 12 19 30.18 1022 10 16 0.00 0.03
1:49 pm 13:49 Cloudy 30 -1 28 -2 93 93 N 12 19 30.21 1023 10 16 0.00 0.00
1:53 pm 13:53 Cloudy 31 -0.6 28 -2.2 89 89 N 12 19 30.19 1022 10 16 0.00 0.00
2:03 pm 14:03 Cloudy 30 -1 28 -2 93 93 N 8 13 30.21 1023 10 16 0.00 0.00
2:53 pm 14:53 Cloudy 32 0 28 -2.2 85 85 N 10 17 30.21 1023 10 16 0.00 0.00
3:53 pm 15:53 Cloudy 32 0 28 -2.2 85 85 N 12 19 30.24 1024 10 16 0.00 0.00
4:53 pm 16:53 Cloudy 32 0 28 -2.2 85 85 NNW 5 7 30.26 1025 10 16 0.00 0.00
5:08 pm 17:08 Cloudy 32 0 28 -2 87 87 N 6 9 30.27 1025 10 16 0.00 0.00
5:53 pm 17:53 Cloudy 31 -0.6 27 -2.8 85 85 NNW 7 11 30.27 1025 10 16 0.00 0.00
6:05 pm 18:05 Cloudy 31 -0.6 27 -2.8 85 85 NW 6 9 30.30 1026 10 16 0.00 0.00
6:51 pm 18:51 Cloudy 30 -1 28 -2 93 93 NNW 7 11 30.30 1026 10 16 0.00 0.00
6:53 pm 18:53 Cloudy 30 -1.1 27 -2.8 88 88 NNW 7 11 30.27 1025 10 16 0.00 0.00
7:24 pm 19:24 Cloudy 30 -1 27 -3 86 86 undefined N/A 30.33 1027 10 16 0.00 0.00
7:53 pm 19:53 Cloudy 30 -1.1 27 -2.8 88 88 WNW 3 6 30.30 1026 10 16 0.00 0.00
8:53 pm 20:53 Cloudy 28 -2.2 26 -3.3 92 92 W 5 7 30.31 1026 10 16 0.00 0.00
9:53 pm 21:53 Cloudy 27 -2.8 26 -3.3 96 96 W 5 7 30.32 1027 10 16 0.00 0.00
10:23 pm 22:23 Cloudy 27 -2.8 27 -2.8 100 100 SW 3 6 30.39 1029 10 16 0.00 0.00
10:53 pm 22:53 Cloudy 28 -2.2 27 -2.8 96 96 SSW 7 11 30.34 1027 10 16 0.00 0.00
11:53 pm 23:53 Cloudy 28 -2.2 27 -2.8 96 96 SW 5 7 30.33 1027 10 16 0.00 0.00

Powered by AerisWeather